This is the latest recevied weather packets stored in our database for station/object WX4SGA. If no packets are shown the sender has not sent any weather packets the latest 10 day(s).
| Time | Temp. | Humidity | Pressure | Rain* | Wind** | Luminosity | Snow |
|---|---|---|---|---|---|---|---|
| 1788007042 | 22.78° C | 99% | 1020 hPa | 1.78 mm | - | 25 W/m² | - |
| 1788006740 | 22.78° C | 99% | 1020 hPa | 0 mm | - | 23 W/m² | - |
| 1788006434 | 22.78° C | 99% | 1020 hPa | 0 mm | - | 24 W/m² | - |
| 1788006130 | 22.78° C | 99% | 1020 hPa | 0 mm | - | 23 W/m² | - |
| 1788005829 | 22.78° C | 99% | 1020 hPa | 0 mm | - | 19 W/m² | - |
| 1788005523 | 22.78° C | 99% | 1020 hPa | 0 mm | - | 18 W/m² | - |
| 1788005222 | 22.78° C | 99% | 1020 hPa | 0 mm | - | 15 W/m² | - |
| 1788004921 | 22.78° C | 99% | 1019.6 hPa | 0 mm | - | 15 W/m² | - |
| 1788004620 | 22.78° C | 99% | 1019.6 hPa | 0 mm | - | 14 W/m² | - |
| 1788004315 | 22.78° C | 99% | 1019.6 hPa | 0 mm | - | 13 W/m² | - |
| 1788004014 | 22.78° C | 99% | 1019.6 hPa | 0 mm | - | 12 W/m² | - |
| 1788003713 | 22.78° C | 99% | 1019.6 hPa | 0 mm | - | 12 W/m² | - |
| 1788003408 | 22.78° C | 99% | 1019.3 hPa | 0 mm | - | 9 W/m² | - |
| 1788003102 | 22.78° C | 99% | 1019.3 hPa | 0 mm | - | 8 W/m² | - |
| 1788002797 | 22.78° C | 99% | 1019.3 hPa | 0 mm | - | 6 W/m² | - |
| 1788002493 | 22.78° C | 99% | 1019.6 hPa | 0 mm | - | 4 W/m² | - |
| 1788002188 | 22.78° C | 99% | 1019.3 hPa | 0 mm | - | 3 W/m² | - |
| 1788001888 | 22.78° C | 99% | 1019.3 hPa | 1.78 mm | - | 2 W/m² | - |
| 1788001583 | 22.78° C | 99% | 1019 hPa | 1.78 mm | - | 1 W/m² | - |
| 1788001278 | 22.78° C | 99% | 1019.3 hPa | 0 mm | - | 0 W/m² | - |
| 1788000972 | 22.78° C | 99% | 1019.3 hPa | 0 mm | - | 0 W/m² | - |
| 1788000668 | 22.78° C | 99% | 1019.3 hPa | 0 mm | - | 0 W/m² | - |
| 1788000362 | 22.78° C | 99% | 1019 hPa | 0 mm | - | 0 W/m² | - |
| 1788000056 | 22.78° C | 99% | 1019 hPa | 0 mm | - | 0 W/m² | - |
| 1787999753 | 22.78° C | 99% | 1019 hPa | 0 mm | - | 0 W/m² | - |
* Rain latest hour (hover to see other rain measurements)
** Current wind speed in m/s (hover to see current wind gust speed)